GFSSW_700_spd_132.txt.gz
Wind_Speed
12 12 10 10 11 11 11 11 12 14 15 14 13 11 9 6 5 4 5 6 4 4 4 4 4 4 4 6 6 7 8 8 8 8 6 6 10 11 15 17 18 15 15 14 14
14 14 13 11 10 12 13 14 13 13 14 15 12 10 9 6 6 5 6 6 5 4 4 4 3 4 5 3 3 4 5 5 6 8 9 7 7 9 10 11 14 19 21 20 18
15 16 15 15 13 13 14 15 15 14 12 14 12 10 9 8 8 6 6 7 7 5 4 3 3 3 4 3 3 3 2 1 3 4 5 2 4 6 9 7 11 14 12 17 25
16 16 17 17 16 15 16 16 15 15 12 12 12 11 10 9 4 7 7 7 7 6 3 2 3 3 3 3 3 2 2 1 2 0 2 5 5 6 10 9 13 16 14 14 15
17 17 16 17 18 17 14 14 16 14 13 11 11 12 10 9 9 8 7 7 7 5 3 3 3 3 4 3 3 3 2 2 2 4 6 7 7 7 8 10 10 12 15 16 16
18 18 17 17 17 19 18 14 13 13 13 11 11 11 11 10 10 10 7 8 7 4 4 4 3 3 4 4 3 5 6 6 5 7 9 8 10 10 11 11 10 14 15 19 19
20 19 19 17 16 18 19 18 14 11 12 11 11 12 12 12 11 9 7 7 6 4 4 5 5 4 6 4 6 9 10 11 11 11 11 11 14 11 13 14 14 17 16 15 22
21 20 20 20 17 17 18 18 17 12 11 12 12 13 14 16 13 10 7 8 8 5 6 7 7 6 6 7 9 8 7 8 9 10 10 10 14 10 13 15 17 18 18 17 19
22 22 22 21 20 18 17 18 17 16 13 13 13 15 16 15 13 12 8 9 9 7 8 8 10 8 7 7 8 6 6 9 8 10 10 12 14 12 16 17 18 20 21 23 26
25 24 23 21 22 19 19 19 19 17 16 14 16 15 16 11 14 13 12 10 10 8 10 9 12 12 11 9 6 6 9 10 12 8 15 13 9 13 14 15 18 22 26 31 32
27 27 25 23 22 21 20 18 20 22 19 16 14 12 10 12 14 15 13 12 12 11 11 13 14 15 9 11 10 10 11 13 13 12 12 8 9 8 13 17 21 24 31 31 29
29 29 27 26 24 22 20 20 21 22 24 19 20 24 16 17 17 18 16 14 12 12 13 14 19 10 15 14 11 12 13 14 11 9 14 14 15 14 13 16 20 27 29 26 22
33 31 29 28 26 24 22 22 21 22 26 28 24 24 22 23 21 18 16 12 11 14 15 17 11 7 13 13 12 12 14 12 13 12 13 16 17 4 8 11 20 25 26 23 20
37 34 32 28 29 26 23 22 21 18 18 30 27 26 28 28 27 23 20 16 17 15 16 15 13 16 14 14 12 14 9 10 13 11 4 10 7 15 5 17 22 23 22 20 18
39 36 35 31 28 28 25 21 20 14 5 11 17 22 23 31 20 22 21 21 20 16 13 6 6 11 15 12 11 8 10 13 12 10 11 9 6 5 8 21 22 20 18 20 17
40 38 36 32 31 27 27 22 16 12 11 10 14 18 24 31 30 14 22 21 19 19 19 18 13 12 12 11 9 10 10 10 5 3 3 3 3 7 10 21 21 19 14 14 14
39 40 35 34 32 30 27 24 15 17 10 20 17 18 23 28 33 25 21 24 18 14 20 17 20 19 14 12 10 9 6 3 2 1 4 5 6 7 12 18 19 17 17 12 13
40 39 42 34 32 32 30 28 19 20 35 9 16 20 24 26 31 30 22 24 23 18 7 14 7 20 18 17 8 9 7 3 5 2 4 4 5 5 11 13 16 15 15 13 8
46 41 43 43 31 35 37 37 37 37 17 39 20 18 25 28 18 32 30 28 26 24 14 12 9 11 10 15 12 8 7 5 2 1 3 3 7 8 8 9 10 9 11 9 6
45 46 44 40 49 33 43 49 55 39 31 24 38 21 22 32 30 21 26 21 30 23 24 9 5 13 17 15 14 11 6 4 4 1 3 5 7 6 7 8 7 5 6 7 5
40 45 44 38 45 58 39 59 56 37 40 37 24 27 31 24 33 32 14 21 19 25 24 20 13 11 18 17 16 14 13 8 4 3 4 2 5 4 5 7 7 2 4 6 6
32 39 37 30 33 48 57 50 54 40 40 42 40 33 33 32 28 36 32 18 20 21 29 25 11 10 19 12 13 16 14 13 6 6 6 2 7 5 3 4 6 3 2 1 5
31 39 35 30 33 41 52 51 47 50 41 42 44 35 29 32 28 28 31 31 21 20 19 25 12 8 6 12 18 20 22 19 17 9 11 5 4 5 2 3 2 3 1 2 3
32 38 36 34 43 41 40 49 50 48 56 47 43 35 30 31 30 23 27 31 28 20 23 18 16 12 12 4 7 13 22 25 22 13 14 22 13 11 9 6 3 1 2 3 5
37 43 40 28 33 47 42 40 38 52 45 49 52 48 32 27 33 32 29 31 28 28 27 23 17 19 18 13 11 11 12 17 28 28 19 19 17 7 11 10 6 5 3 4 6
40 43 41 41 45 33 43 57 41 33 43 53 51 61 44 32 28 34 31 30 32 31 29 29 19 20 19 16 17 19 18 20 22 25 30 29 27 18 15 15 8 6 7 6 8
42 44 42 45 43 49 36 35 40 38 52 38 44 62 52 47 31 21 24 27 31 31 29 33 31 22 10 14 13 15 24 24 27 27 23 27 6 8 14 19 12 8 8 10 9

GFSSW_700_spd_138.txt.gz
Wind_Speed
12 12 12 12 12 11 10 10 11 12 12 11 13 14 13 10 10 8 6 6 5 7 7 6 5 5 7 8 8 8 7 7 8 8 7 11 9 12 12 13 15 16 17 20 21
13 13 13 13 13 12 11 12 11 13 13 11 11 12 12 11 10 9 8 7 7 7 7 6 6 6 7 7 7 7 7 8 10 9 7 10 11 10 9 10 11 13 14 15 17
13 14 14 14 14 13 13 13 13 13 11 14 10 10 11 11 11 9 8 8 7 7 7 6 7 6 6 6 7 7 8 9 7 6 8 9 8 9 8 9 10 12 14 16 16
16 15 15 15 15 15 14 15 15 15 13 12 12 8 11 11 7 6 7 8 7 8 7 7 7 7 7 8 8 6 8 6 5 5 5 6 9 11 11 13 13 13 14 16 13
18 19 17 17 16 15 15 15 16 16 16 13 12 9 11 12 11 11 8 7 9 8 7 7 8 7 9 8 8 7 7 6 7 8 8 10 10 14 15 15 16 17 18 18 18
19 20 20 19 19 17 16 16 16 16 16 15 12 10 9 12 13 12 11 10 10 9 9 9 9 9 10 10 8 6 7 9 10 11 11 12 14 17 18 17 18 19 19 20 22
18 18 19 20 20 20 19 17 17 16 15 15 13 12 9 12 14 12 11 12 11 10 10 10 10 9 9 8 9 8 10 12 13 14 15 15 20 18 20 18 19 20 21 23 25
20 20 20 20 21 20 21 20 18 18 17 15 13 14 11 13 17 15 12 12 13 11 11 10 10 10 11 10 8 9 11 7 9 12 16 15 15 13 15 16 20 21 22 23 26
22 21 21 22 22 21 22 21 21 20 19 17 16 14 15 14 18 17 15 14 14 13 12 12 12 12 11 10 8 10 8 8 8 11 12 14 12 15 16 18 21 23 24 28 32
26 24 23 23 23 23 23 24 22 22 21 19 19 17 15 11 14 18 18 18 16 15 14 14 14 14 15 12 10 8 8 9 9 9 14 16 19 15 16 19 23 25 26 31 34
27 26 27 26 25 24 23 24 24 24 25 21 20 11 12 10 13 17 19 20 19 18 16 16 17 16 13 14 16 14 11 13 12 14 18 13 15 14 19 21 23 25 25 33 35
30 27 27 27 28 26 25 25 25 27 30 25 24 25 23 21 19 18 21 23 24 21 18 18 21 16 17 18 17 17 13 15 14 12 15 13 18 18 22 21 21 20 29 32 31
36 35 29 26 28 27 26 26 26 27 31 36 31 31 26 25 26 23 23 25 24 23 21 19 12 7 13 17 20 18 16 14 14 14 17 16 14 8 6 11 14 21 27 26 20
35 35 35 31 26 26 27 25 23 22 23 31 36 32 32 32 34 29 24 26 28 25 20 18 20 24 24 21 15 16 16 16 13 8 8 7 5 9 13 10 14 21 24 15 9
38 36 34 32 29 25 25 22 19 14 8 11 17 20 26 35 31 33 31 29 29 28 23 12 11 11 15 19 18 13 15 13 13 12 12 10 7 6 8 9 14 17 15 5 7
39 36 34 33 29 27 23 20 16 7 12 9 13 17 23 28 36 28 33 34 31 27 28 23 22 15 11 11 16 17 13 13 13 7 8 8 6 5 7 7 12 12 7 1 8
36 31 29 26 26 26 23 18 13 21 12 15 20 18 19 27 35 30 35 40 32 23 29 23 31 28 23 14 16 16 9 4 5 5 2 5 6 10 10 9 9 7 5 1 6
31 27 26 23 26 25 23 23 20 26 33 20 9 23 24 26 29 34 29 32 35 28 13 22 11 29 30 25 14 19 15 7 4 3 1 7 8 5 11 7 6 4 2 2 2
29 29 25 25 28 25 27 33 33 30 25 18 28 17 25 27 23 33 36 33 33 41 24 13 12 13 18 24 23 17 16 15 5 8 4 7 7 10 12 7 5 4 1 0 1
30 28 22 25 28 27 31 47 36 30 27 17 21 21 24 28 32 24 25 26 41 39 33 16 5 13 19 18 24 18 13 7 9 4 5 6 7 9 11 7 5 6 4 3 2
32 34 30 28 25 26 34 33 39 46 28 29 32 23 26 25 35 35 28 29 23 38 37 27 15 7 19 23 21 31 21 13 8 6 3 3 3 7 9 6 4 9 6 5 4
37 38 29 22 22 25 32 34 33 36 27 33 34 33 21 21 30 39 37 33 19 25 41 38 19 16 19 19 24 20 20 22 13 7 8 3 4 10 10 6 5 10 8 7 5
38 40 34 25 25 28 28 27 26 31 30 26 26 36 34 19 14 30 35 36 29 22 31 41 21 15 7 16 23 30 32 26 21 11 12 5 3 11 12 8 7 6 8 10 9
40 34 30 36 34 31 27 30 30 33 32 27 36 31 31 38 29 15 28 30 32 34 30 28 26 35 22 11 17 26 34 34 28 18 13 19 6 12 14 10 6 6 6 10 12
44 42 34 21 24 24 18 21 25 27 24 30 31 38 31 27 45 33 25 21 30 33 35 28 27 32 25 23 14 15 24 33 34 29 19 8 15 16 16 14 10 10 9 8 12
40 37 36 34 28 24 20 23 26 32 26 30 34 25 29 45 28 37 29 22 17 25 35 37 20 29 28 29 20 17 15 18 25 31 32 26 25 17 16 19 18 14 11 10 11
50 41 35 28 29 27 31 28 27 24 28 29 28 30 34 31 29 40 33 24 28 22 29 31 29 26 26 28 27 24 37 29 27 27 28 28 13 12 21 26 21 16 14 12 11

GFSSW_700_spd_141.txt.gz
Wind_Speed
13 13 13 13 13 12 10 11 12 13 14 14 14 13 12 9 9 10 10 9 8 8 7 6 5 6 7 7 8 8 7 8 10 9 7 10 7 9 11 10 10 9 12 17 19
12 13 14 15 14 14 13 12 11 12 14 15 15 15 13 10 9 10 10 10 10 9 8 6 6 6 6 8 8 8 8 7 12 8 6 8 8 9 9 7 9 9 10 15 15
14 14 14 14 14 15 15 15 14 13 12 13 14 14 13 12 9 11 11 11 10 9 7 7 6 7 7 9 8 7 8 11 9 11 12 9 10 10 9 10 10 11 12 17 16
16 15 15 16 16 15 15 15 16 16 14 12 12 13 11 12 1 8 11 12 9 8 7 7 8 7 7 9 8 9 11 10 9 11 10 9 9 11 12 11 18 16 16 17 17
16 17 17 17 17 17 16 15 15 16 16 15 13 12 11 12 11 12 11 10 9 7 8 8 7 7 10 8 12 13 11 11 12 12 10 11 13 13 15 15 16 18 18 19 19
17 17 18 18 17 18 17 16 16 16 17 17 14 12 13 11 16 14 15 13 10 9 9 8 8 10 12 12 12 10 12 12 12 12 13 15 14 16 15 16 17 20 21 21 21
19 19 19 19 19 19 20 19 17 17 16 16 17 15 15 11 15 13 14 14 11 11 10 10 11 10 8 9 14 15 13 13 15 15 14 14 18 21 14 19 20 23 21 24 23
20 20 20 20 20 20 21 20 20 19 17 16 17 17 17 13 17 15 15 15 14 12 11 10 11 12 13 14 13 10 13 13 7 11 11 15 17 11 15 20 19 18 16 18 24
21 21 21 21 22 21 22 22 22 21 20 19 18 18 20 15 17 15 17 16 15 15 14 12 12 12 13 12 11 13 14 10 12 11 11 12 13 11 21 22 20 18 19 19 20
22 22 23 24 24 23 23 23 23 23 23 22 21 19 19 18 15 16 17 20 18 17 16 15 13 13 12 13 17 10 13 12 12 11 11 16 22 20 19 25 19 17 18 18 20
25 24 22 25 26 25 24 24 26 26 25 23 18 15 18 16 13 17 19 21 21 20 16 14 13 18 14 16 18 18 16 17 16 14 18 19 19 18 17 18 19 17 16 17 23
32 31 29 25 25 27 25 25 24 27 33 30 28 29 27 24 22 20 20 24 24 22 16 18 20 17 16 18 16 16 18 19 17 16 16 18 23 20 17 20 17 17 19 23 31
31 30 29 30 28 27 26 25 25 27 34 40 34 34 29 30 30 26 26 22 23 21 21 24 11 15 17 18 17 18 19 19 18 17 20 21 28 17 16 14 15 16 19 23 15
32 31 30 25 27 29 27 24 23 23 25 30 34 29 32 37 39 29 30 23 24 25 21 24 23 23 17 17 15 18 15 17 16 13 12 4 9 10 12 12 13 9 13 14 8
36 34 33 29 24 26 25 23 19 16 8 4 15 16 16 34 22 33 36 28 28 24 22 17 16 17 23 22 18 18 18 15 11 14 18 20 12 12 12 12 11 9 15 8 4
40 36 31 28 25 24 22 18 14 6 15 8 10 12 18 21 21 22 29 30 26 25 24 26 18 16 15 15 13 14 16 11 11 11 12 21 18 8 10 11 12 12 10 5 4
39 36 32 24 21 18 19 16 9 16 10 13 13 18 17 18 29 29 28 36 29 28 33 26 30 23 25 17 15 18 9 4 6 6 4 2 9 18 9 15 12 10 8 3 5
40 34 27 21 20 19 20 19 20 22 29 17 9 10 14 17 22 22 24 34 37 28 16 28 17 31 26 30 13 21 18 8 5 4 2 3 9 5 14 15 11 9 6 3 3
38 33 29 24 24 23 23 28 30 26 27 23 20 30 22 19 17 26 30 34 36 39 27 18 21 15 18 18 21 13 24 20 19 16 9 11 11 14 15 14 11 10 6 4 1
36 37 37 27 24 23 29 44 30 30 20 17 19 23 23 27 22 20 23 23 35 38 36 18 14 15 23 19 23 22 12 11 13 4 6 10 13 12 11 16 11 10 8 6 4
35 38 31 27 25 27 31 33 33 39 24 20 22 25 26 29 30 28 22 24 23 34 38 36 20 9 17 25 23 28 22 12 12 14 4 5 3 6 14 11 8 11 10 8 6
38 39 29 30 25 27 32 31 31 35 24 26 35 28 27 26 26 33 36 27 16 32 38 36 22 24 25 12 21 22 24 24 14 11 13 14 7 5 11 10 9 11 11 9 8
46 47 38 36 28 30 26 27 28 30 29 26 29 27 28 26 28 26 29 29 28 24 30 29 30 23 18 15 20 27 29 28 27 19 16 10 3 9 12 12 10 9 12 11 10
42 39 41 40 34 28 27 29 30 27 25 23 30 28 30 32 24 17 18 17 23 27 26 21 33 39 29 22 21 28 32 33 30 28 26 26 12 9 13 14 11 10 10 10 12
45 48 40 26 33 35 31 30 26 26 23 21 20 25 29 37 39 28 38 27 19 18 30 30 26 34 34 38 15 18 29 36 39 39 24 23 22 20 16 13 10 10 12 10 11
48 47 54 52 26 27 27 30 33 28 21 18 21 23 24 31 31 34 19 39 29 17 27 33 31 27 32 31 26 22 21 27 38 35 35 22 19 10 15 17 20 17 14 12 10
48 49 41 32 34 28 27 28 25 22 22 21 22 24 27 29 29 32 42 27 31 30 25 29 29 29 28 28 20 25 34 28 29 33 33 33 25 17 20 24 21 15 15 13 12

GFSSW_700_spd_144.txt.gz
Wind_Speed
12 13 13 13 13 12 11 11 12 11 11 12 14 13 16 15 13 12 12 7 6 7 8 7 6 5 4 5 5 7 7 4 9 8 9 12 15 9 12 12 9 11 15 17 25
14 14 14 15 15 14 13 13 13 13 13 12 13 15 14 14 14 13 14 7 6 7 7 7 6 6 5 4 4 6 5 4 11 11 12 9 13 10 12 6 8 11 14 20 15
15 16 16 15 15 15 14 14 13 14 14 13 13 13 14 13 12 15 10 8 8 8 6 6 6 5 5 6 5 5 9 5 14 18 18 14 12 12 14 12 9 11 14 21 15
15 16 17 17 16 16 16 15 14 14 14 14 13 13 13 11 4 8 8 8 9 8 7 5 5 6 4 6 4 12 7 12 12 15 12 13 12 12 14 15 15 20 22 22 19
16 17 18 18 18 18 18 17 16 16 14 15 14 13 12 13 8 13 12 11 10 7 7 6 6 6 8 4 7 15 8 8 17 16 14 15 16 16 18 15 19 24 18 19 19
17 17 18 19 19 19 19 19 18 17 16 16 15 15 14 12 17 11 12 12 12 11 8 8 7 8 13 13 13 5 11 15 15 16 15 16 18 16 14 14 17 26 20 19 21
18 19 19 20 20 20 20 20 19 19 18 17 17 17 18 9 15 14 13 11 12 12 11 10 10 12 6 8 12 15 18 14 15 17 17 16 22 17 13 15 17 27 24 18 21
17 18 18 19 20 20 20 21 20 20 19 19 19 20 20 17 15 17 13 13 12 14 13 12 10 12 13 11 15 14 13 16 12 13 16 19 26 7 16 17 18 24 17 20 20
16 17 19 21 21 20 20 21 21 21 21 20 21 21 23 18 16 14 16 15 13 15 15 13 13 12 10 12 11 11 14 13 13 12 12 19 19 11 14 19 24 20 15 16 18
20 19 19 21 22 22 21 21 21 23 22 22 22 22 17 18 17 13 15 16 18 17 17 15 15 14 12 14 14 13 15 14 10 14 16 17 24 22 20 25 26 24 15 15 22
24 24 23 22 23 25 23 23 23 26 26 21 21 21 15 19 16 14 16 18 19 19 20 14 15 20 14 15 16 20 20 19 16 15 20 23 28 24 15 19 24 24 19 18 23
28 27 26 28 27 26 25 25 23 26 33 28 27 31 25 27 25 23 19 21 24 25 17 15 28 17 14 17 18 19 20 21 19 16 22 25 30 27 23 21 19 26 22 25 26
30 29 28 28 27 28 26 25 23 26 35 41 33 33 27 29 33 29 28 24 25 24 22 23 13 11 13 17 20 21 21 21 21 19 20 25 30 15 11 16 29 28 23 21 21
31 30 30 26 29 28 25 22 22 24 28 34 15 10 20 30 37 32 29 24 27 27 20 24 25 28 23 19 18 24 15 18 21 15 12 7 10 19 15 18 19 19 15 17 14
35 30 29 30 25 25 23 19 17 15 7 6 8 5 10 25 17 17 32 32 32 26 23 29 11 23 28 28 17 23 18 17 14 14 19 23 15 10 10 26 22 12 17 16 11
37 34 30 27 24 20 17 15 11 5 10 6 7 9 12 16 18 14 24 35 30 26 30 31 23 19 20 16 22 15 19 18 16 12 9 23 22 12 20 17 11 17 19 12 9
39 37 32 31 23 16 13 12 7 12 5 7 7 10 14 13 21 19 21 36 35 28 37 32 33 30 20 19 19 18 11 3 5 5 5 5 6 13 5 11 20 22 17 8 6
42 39 35 29 27 18 13 15 16 15 20 21 18 12 12 13 19 23 23 35 36 33 15 33 23 33 32 36 21 24 22 9 5 2 3 6 7 7 18 25 23 20 14 6 4
42 41 41 31 24 19 20 28 23 19 14 16 30 24 24 20 18 16 33 32 36 40 28 17 27 19 26 33 26 17 27 24 14 19 7 10 15 16 20 21 17 18 12 6 4
39 43 44 36 28 25 29 46 32 27 31 22 16 15 21 26 29 26 24 24 34 36 38 26 23 18 27 20 23 27 13 15 15 3 5 10 22 15 14 15 19 17 12 8 5
32 39 44 30 24 27 42 48 41 40 34 22 20 21 26 24 25 30 29 23 21 24 38 40 26 8 21 25 28 35 28 18 15 12 3 4 2 5 13 15 11 14 13 8 6
29 35 30 16 25 29 37 36 31 31 28 29 26 32 31 29 28 30 29 26 26 22 31 42 28 36 28 22 20 27 36 29 10 13 17 9 9 10 10 12 12 13 12 9 7
34 38 40 27 40 38 34 28 27 29 32 29 24 26 24 28 32 28 28 22 19 18 12 29 34 24 20 28 21 31 31 30 33 18 18 9 3 7 11 11 14 12 11 11 8
37 41 42 36 42 37 37 33 32 30 28 25 24 28 28 26 27 32 32 27 12 12 23 19 33 36 32 28 24 29 38 38 37 33 30 28 11 11 11 12 15 14 11 11 9
35 44 43 32 29 48 41 31 30 29 24 25 27 24 20 24 28 35 31 36 36 21 21 16 27 37 45 38 29 29 27 41 45 44 30 34 30 27 26 20 17 14 13 12 9
39 40 38 47 41 31 39 35 39 32 27 26 27 24 21 22 23 26 28 26 26 30 33 19 28 31 33 41 40 35 33 30 33 48 45 22 22 22 11 14 19 20 16 13 12
40 40 44 49 45 44 47 44 39 33 30 28 23 19 22 24 20 21 26 29 33 33 15 31 18 28 34 37 35 32 41 38 27 33 42 41 37 12 14 21 21 21 16 14 13

GFSSW_700_spd_147.txt.gz
Wind_Speed
13 13 13 13 13 13 13 12 13 13 12 12 12 13 12 13 12 9 10 9 9 7 2 4 4 5 5 6 8 8 7 4 2 4 8 15 16 18 15 11 18 17 19 24 19
13 14 15 15 15 15 15 14 13 14 14 12 12 13 12 12 12 10 11 8 9 8 6 5 5 5 5 4 5 6 9 5 4 7 11 16 19 13 13 11 8 9 16 19 21
14 14 15 15 16 16 17 16 16 15 15 15 14 13 14 12 13 6 6 7 9 8 6 8 6 4 4 4 4 6 8 11 10 15 19 22 24 19 16 20 13 12 17 22 15
13 14 14 15 16 16 16 17 17 16 16 16 16 15 14 13 10 8 5 3 5 6 7 8 8 5 5 4 2 9 8 11 14 15 14 13 15 17 16 14 12 18 18 24 26
15 15 15 15 16 16 16 16 17 17 17 17 17 16 16 14 11 10 8 9 7 7 8 9 7 5 3 3 4 12 6 10 10 17 15 13 14 16 18 17 18 19 21 22 25
17 17 17 18 18 17 17 17 16 17 17 18 18 19 17 15 15 11 9 10 9 10 10 10 8 8 11 11 12 7 11 13 14 18 18 17 15 17 11 10 14 22 23 17 21
17 17 18 18 18 18 18 18 17 17 17 18 19 20 20 11 18 12 11 10 12 12 11 10 10 11 10 9 9 13 18 18 17 13 15 11 19 16 9 9 15 20 24 21 25
17 17 18 17 18 17 17 18 19 19 18 19 20 21 22 16 18 17 12 13 13 13 12 12 10 12 13 13 14 12 15 16 3 5 8 13 24 17 13 12 14 18 23 26 23
20 20 20 21 21 20 19 18 19 20 20 20 21 22 22 19 17 18 16 14 15 15 15 15 14 13 14 14 13 12 13 9 14 11 14 15 24 14 14 17 15 18 22 23 13
23 22 21 22 23 23 23 22 22 23 22 21 23 22 18 17 17 13 13 14 17 16 18 17 16 17 16 17 13 6 14 17 18 9 17 20 28 28 24 22 23 22 27 20 20
24 23 24 25 24 24 22 21 23 26 25 23 23 24 24 21 20 16 15 17 20 21 22 17 20 24 15 16 7 8 14 19 19 17 19 25 29 30 32 28 20 20 23 27 31
25 25 24 26 26 27 26 26 27 29 32 25 27 30 22 27 27 25 22 23 26 26 20 19 27 16 11 13 17 22 23 24 24 21 17 24 33 34 33 25 22 21 28 33 31
27 28 28 27 27 27 24 24 24 29 36 37 34 31 28 33 35 31 27 26 26 27 26 27 14 2 15 12 19 21 23 26 26 20 22 29 39 32 9 14 18 25 29 31 30
27 27 28 25 26 24 22 21 21 23 28 31 4 6 12 28 41 39 33 26 31 32 26 24 26 21 13 17 14 23 21 20 18 15 17 11 12 33 27 28 19 22 28 30 21
30 30 27 29 24 21 16 16 16 16 7 8 3 4 10 12 11 6 34 34 35 31 28 27 7 8 25 30 26 29 18 18 20 20 23 27 14 22 9 16 23 26 26 17 14
30 28 27 27 26 16 12 10 10 7 9 5 7 8 11 13 17 12 7 35 35 30 33 33 25 19 14 18 24 23 20 17 21 15 8 21 17 14 11 10 18 24 20 8 13
39 36 30 28 21 18 10 9 8 11 4 4 6 6 12 12 14 17 9 32 34 31 38 34 37 31 29 20 18 19 16 3 2 2 7 2 8 23 13 10 15 19 18 11 13
40 41 37 33 25 18 10 13 15 14 17 13 13 11 13 12 13 15 19 22 40 31 14 20 24 39 31 36 27 24 24 10 6 4 4 7 8 7 16 26 22 22 19 14 13
44 44 45 33 26 20 17 24 25 20 15 24 29 29 30 24 19 15 25 24 31 41 41 10 18 15 23 38 32 25 30 28 6 13 4 8 12 19 19 18 20 21 19 14 13
47 44 43 40 29 24 27 41 36 31 29 23 19 12 15 17 15 24 23 10 23 34 34 41 35 27 23 28 31 29 19 17 20 3 5 9 15 18 14 14 22 23 18 13 13
43 44 41 29 26 29 40 48 45 42 31 25 21 15 22 23 21 19 12 16 20 22 36 40 38 30 17 32 37 35 29 14 15 12 5 3 5 3 5 14 15 12 15 12 12
41 42 27 18 22 34 44 43 39 35 30 36 28 32 30 30 30 23 17 14 13 12 16 21 34 43 46 22 31 34 34 41 16 8 21 9 10 15 17 11 11 13 13 12 14
31 38 36 29 36 33 37 41 37 31 29 27 33 36 27 25 24 30 25 24 23 13 8 12 19 31 26 38 39 32 33 36 39 20 18 8 7 7 8 4 7 12 12 12 14
32 39 38 37 37 37 39 45 39 38 35 30 21 23 32 33 27 24 25 24 25 26 17 16 24 22 31 36 37 32 31 34 37 39 30 32 14 15 18 10 8 9 12 11 13
31 39 40 33 30 28 27 35 41 43 35 33 33 32 30 28 31 33 34 33 32 25 35 24 21 32 31 35 25 36 40 39 42 45 29 42 45 33 25 23 21 16 14 15 14
34 34 22 29 35 40 36 40 41 43 33 33 29 30 28 26 26 21 24 33 36 38 30 23 22 28 35 26 34 39 31 29 44 42 44 46 34 30 33 34 33 23 17 18 14
31 33 38 43 44 43 43 41 43 41 35 24 32 22 28 31 26 24 22 24 25 31 30 28 26 24 20 28 24 28 53 48 37 32 35 43 39 37 18 25 26 19 16 18 15